STARLINK-33797, 63448

Orbit data source: Space-Track

STARLINK-33797, 63448 is a payload satellite owned by SpaceX/Seattle (US) in LEO that was launched on Fri, 04 Apr 2025 UTC via an FALCON 9 launch vehicle from the Air Force Western Test Range (AFWTR). Payload-class satellites include a variety of spacecraft equipped with specific instruments for various scientific and technological missions. These include communications satellites like Starlink; space stations such as the ISS; scientific satellites like the Hubble; Earth observation satellites from companies like Planet Labs, Umbra, and HawkEye 360; GPS; miniature CubeSats for education and research; and military/defense satellites.

Loading next visibility...
Identifier
63448, 2025-069R
Orbit
LEO
Country
Flag of USUS
Related business
Manufacturer
SpaceX/Seattle
Mission
Operational Commercial Communications
Bus & Motor
STARLINK V2MO, Unknown motor
Mass
575 kg wet, ~530 kg dry
Launch date (UTC)
2025-04-04 (1 year ago)
Launch vehicle
FALCON 9
Launch site
Air Force Western Test Range (AFWTR)
Object type
Payload
Rocket body
Debris
Shape & HBR
Box + 2 Pan, 17.7 m
Radar Cross Section
36.964 m², Large (>1 m²)

Expand to show TLE details & history
Last TLE update: 10 hours ago

TLE from 10 hours ago
0 STARLINK-33797
1 63448U 25069R   26145.36927942  .00028985  00000-0  67256-3 0  9998
2 63448  53.1584 143.5407 0000586 118.4466 241.6599 15.42179003 65128
Epoch: 2026-05-25T08:51Z
TLE epoch observation values (Epoch: 2026-05-25T08:51:45.741Z)
Latitude
-0.00005°
Longitude
127.64202°
Altitude
440.774 km
Speed
7.649 km/s
True Right ascension
09h 34m 09s
True Declination
0° 00' 00"
Sunlit
Object was in daylight at epoch
Visualization orbit readout
Latitude
Unknown
Longitude
Unknown
Altitude
Unknown
Speed
Unknown
Apparent Right ascension
Unknown
Apparent Declination
Unknown
Sunlit
N/A
Visualization observer readout
Local Sidereal Time
03:50:39
Azimuth
Unknown
Elevation
Unknown
Doppler factor
Unknown
Orbital elements
Apogee altitude
440.337 km
Perigee altitude
439.538 km
Semi-major axis
6,818.075 km
Eccentricity
0.00006
Inclination
53.1584°
RAAN
143.5407°
Arg. of periapsis
118.4466°
True anomaly
241.65399°
Mean anomaly
241.6599°
Eccentric anomaly
241.65694°
Mean motion
3.85523 °/min
Orbital period
93.38 mins
BSTAR
0.00067256
Loading maneuver chart data...
Computing Atmospheric mass density...
Loading historical data...
Loading historical data...
Loading historical data...
Loading historical data...
Loading historical data...
Loading historical data...
Loading historical data...

Documentation

Showing up to 5 results
|